Weather History for Salem, IL

Change the Weather History Date:

Wednesday, April 23, 2014

  Actual Average Record
Temperature  
Mean Temperature 54 °F -  
Max Temperature 65 °F 69 °F 89 °F (1965)
Min Temperature 44 °F 48 °F 29 °F (1986)
Degree Days  
Heating Degree Days 10    
Growing Degree Days 4 (Base 50)    
Moisture  
Dew Point 36 °F    
Average Humidity 50    
Maximum Humidity 78    
Minimum Humidity 30    
Precipitation  
Precipitation 0.00 in - - ()
Sea Level Pressure  
Sea Level Pressure 30.07 in    
Wind  
Wind Speed 5 mph (ENE)    
Max Wind Speed 12 mph    
Max Gust Speed 16 mph    
Visibility 10 miles    
Events Rain    
Averages and records for this station are not official NWS values.
T = Trace of Precipitation, MM = Missing Value Source: NWS Daily Summary

Daily Weather History Graph

Daily Weather History Graph

Search for Another Location

Airport:

Trip Planner

Search our weather history database for the weather conditions in past years. The results will help you decide how hot, cold, wet, or windy it might be!

Date:

Astronomy

Apr. 23, 2014 Rise Set
Actual Time 6:08 AM CDT 7:40 PM CDT
Civil Twilight 5:40 AM CDT 8:08 PM CDT
Nautical Twilight 5:06 AM CDT 8:42 PM CDT
Astronomical Twilight 4:31 AM CDT 9:17 PM CDT
Moon 2:36 AM CDT (4/23) 1:52 PM CDT (4/23)
Length of Visible Light 14h 27m
Length of Day
13h 31m
Waning Crescent, 34% of the Moon is Illuminated
Apr 23
Waning Crescent
Apr 29
New
May 6
First Quarter
May 14
Full
May 21
Last Quarter

Hourly Weather History & Observations

Time (CDT) Temp. Windchill Dew Point Humidity Pressure Visibility Wind Dir Wind Speed Gust Speed Precip Events Conditions
12:15 AM 53.1 °F - 36.9 °F 54% 30.01 in 10.0 mi North 3.5 mph - N/A   Clear
12:35 AM 53.2 °F - 36.5 °F 53% 30.02 in 10.0 mi North 5.8 mph - N/A   Clear
12:55 AM 47.7 °F - 38.3 °F 70% 30.02 in 10.0 mi NNE 4.6 mph - N/A   Clear
1:15 AM 50.7 °F - 36.9 °F 59% 30.03 in 10.0 mi North 4.6 mph - N/A   Clear
1:35 AM 50.0 °F - 36.3 °F 59% 30.03 in 10.0 mi NNE 3.5 mph - N/A   Clear
1:55 AM 51.1 °F - 34.9 °F 54% 30.03 in 10.0 mi NE 3.5 mph - N/A   Clear
2:15 AM 48.9 °F - 36.1 °F 61% 30.03 in 10.0 mi NNE 3.5 mph - N/A   Clear
2:35 AM 47.8 °F - 36.9 °F 66% 30.03 in 10.0 mi NNE 6.9 mph - N/A   Clear
2:55 AM 48.2 °F - 36.9 °F 65% 30.04 in 10.0 mi NNE 5.8 mph - N/A   Clear
3:15 AM 47.1 °F - 36.9 °F 68% 30.04 in 10.0 mi NNE 4.6 mph - N/A   Clear
3:35 AM 47.8 °F - 37.0 °F 66% 30.05 in 10.0 mi NNE 6.9 mph - N/A   Clear
3:55 AM 47.8 °F - 38.1 °F 69% 30.05 in 10.0 mi NE 5.8 mph - N/A   Clear
4:15 AM 47.3 °F - 38.3 °F 71% 30.07 in 10.0 mi NE 8.1 mph - N/A   Clear
4:35 AM 46.8 °F - 38.8 °F 74% 30.07 in 10.0 mi ENE 5.8 mph - N/A   Clear
4:55 AM 46.0 °F 42.5 °F 39.2 °F 77% 30.07 in 10.0 mi ENE 6.9 mph - N/A   Clear
5:15 AM 45.9 °F 42.3 °F 38.8 °F 76% 30.08 in 10.0 mi ENE 6.9 mph - N/A   Clear
5:35 AM 45.1 °F 42.8 °F 38.7 °F 78% 30.08 in 10.0 mi ENE 4.6 mph - N/A   Clear
5:55 AM 45.0 °F 41.2 °F 38.3 °F 77% 30.09 in 10.0 mi ENE 6.9 mph - N/A   Clear
6:15 AM 44.8 °F 41.0 °F 38.3 °F 78% 30.10 in 10.0 mi ENE 6.9 mph - N/A   Clear
6:35 AM 44.6 °F 41.4 °F 37.9 °F 77% 30.10 in 10.0 mi ENE 5.8 mph - N/A   Clear
6:55 AM 44.8 °F 41.6 °F 37.8 °F 76% 30.11 in 10.0 mi ENE 5.8 mph - N/A   Clear
7:15 AM 45.7 °F 42.7 °F 37.0 °F 72% 30.12 in 10.0 mi ENE 5.8 mph - N/A   Clear
7:35 AM 46.4 °F 45.2 °F 37.2 °F 70% 30.13 in 10.0 mi East 3.5 mph - N/A   Clear
7:55 AM 47.3 °F - 37.0 °F 68% 30.14 in 10.0 mi ENE 6.9 mph - N/A   Clear
8:15 AM 48.2 °F - 36.7 °F 64% 30.14 in 10.0 mi East 6.9 mph - N/A   Clear
8:35 AM 48.9 °F - 34.9 °F 58% 30.14 in 10.0 mi ENE 11.5 mph - N/A   Clear
8:55 AM 50.0 °F - 35.2 °F 57% 30.15 in 10.0 mi ENE 8.1 mph - N/A   Clear
9:15 AM 50.0 °F - 34.0 °F 54% 30.15 in 10.0 mi East 8.1 mph - N/A   Clear
9:35 AM 50.9 °F - 34.3 °F 53% 30.15 in 10.0 mi East 6.9 mph 16.1 mph N/A   Clear
9:55 AM 52.5 °F - 35.8 °F 53% 30.15 in 10.0 mi ENE 8.1 mph - N/A   Clear
10:15 AM 53.2 °F - 36.5 °F 53% 30.15 in 10.0 mi ENE 5.8 mph - N/A   Clear
10:36 AM - - - N/A% 30.14 in - ENE 6.9 mph - N/A   Unknown
10:40 AM 54.1 °F - 33.3 °F 45% 30.14 in - ENE 8.1 mph - N/A   Unknown
10:55 AM 55.9 °F - 35.2 °F 46% 30.14 in 10.0 mi East 5.8 mph - N/A   Clear
11:15 AM 56.8 °F - 36.3 °F 46% 30.14 in 10.0 mi NE 8.1 mph - N/A   Clear
11:35 AM 57.7 °F - 35.1 °F 43% 30.14 in 10.0 mi East 5.8 mph - N/A   Clear
11:55 AM 58.8 °F - 37.2 °F 45% 30.12 in 10.0 mi NNE 8.1 mph - N/A   Clear
12:15 PM 59.0 °F - 36.5 °F 43% 30.13 in 10.0 mi NE 5.8 mph - N/A   Clear
12:35 PM 59.9 °F - 37.8 °F 44% 30.12 in 10.0 mi NNE 9.2 mph - N/A   Clear
1:15 PM 60.3 °F - 34.7 °F 38% 30.10 in 10.0 mi East 6.9 mph - N/A   Clear
1:35 PM 61.5 °F - 36.5 °F 39% 30.10 in 10.0 mi NNE 5.8 mph - N/A   Clear
1:55 PM 62.2 °F - 34.7 °F 36% 30.09 in 10.0 mi ESE 6.9 mph - N/A   Clear
2:15 PM 63.1 °F - 33.4 °F 33% 30.08 in 10.0 mi ESE 4.6 mph - N/A   Clear
2:35 PM 62.6 °F - 32.0 °F 32% 30.08 in 10.0 mi ENE 4.6 mph - N/A   Clear
2:55 PM 63.7 °F - 33.3 °F 32% 30.07 in 10.0 mi SE 4.6 mph - N/A   Clear
3:15 PM 64.4 °F - 33.3 °F 31% 30.06 in 10.0 mi East 6.9 mph - N/A   Clear
3:35 PM 64.2 °F - 33.3 °F 32% 30.06 in 10.0 mi Calm Calm - N/A   Clear
3:55 PM 64.4 °F - 33.4 °F 32% 30.05 in 10.0 mi NNE 4.6 mph - N/A   Clear
4:15 PM 64.6 °F - 33.1 °F 31% 30.05 in 10.0 mi NE 8.1 mph - N/A   Clear
4:35 PM 64.8 °F - 33.3 °F 31% 30.04 in 10.0 mi SSE 5.8 mph - N/A   Clear
4:55 PM 65.5 °F - 33.6 °F 31% 30.03 in 10.0 mi East 8.1 mph - N/A   Clear
5:15 PM 65.8 °F - 33.4 °F 30% 30.03 in 10.0 mi ENE 6.9 mph - N/A   Clear
5:35 PM 63.7 °F - 32.2 °F 31% 30.03 in 10.0 mi East 3.5 mph - N/A   Clear
5:55 PM 63.5 °F - 31.5 °F 30% 30.03 in 10.0 mi ENE 6.9 mph - N/A   Scattered Clouds
6:15 PM 63.0 °F - 32.2 °F 32% 30.03 in 10.0 mi NE 6.9 mph - N/A   Scattered Clouds
6:35 PM 62.6 °F - 31.8 °F 32% 30.03 in 10.0 mi ENE 5.8 mph - N/A   Clear
6:55 PM 62.2 °F - 31.8 °F 32% 30.03 in 10.0 mi ENE 6.9 mph - N/A   Clear
7:15 PM 61.7 °F - 32.2 °F 33% 30.02 in 10.0 mi East 5.8 mph - N/A   Scattered Clouds
7:35 PM 61.7 °F - 32.2 °F 33% 30.01 in 10.0 mi East 4.6 mph - N/A   Mostly Cloudy
7:55 PM 60.8 °F - 33.4 °F 36% 30.01 in 10.0 mi East 5.8 mph - N/A Rain Light Rain
8:15 PM 60.8 °F - 33.4 °F 36% 30.01 in 10.0 mi East 4.6 mph - N/A   Scattered Clouds
8:35 PM 59.7 °F - 35.4 °F 40% 30.02 in 10.0 mi East 3.5 mph - N/A   Clear
8:55 PM 59.0 °F - 36.0 °F 42% 30.02 in 10.0 mi East 3.5 mph - N/A   Clear
9:15 PM 58.5 °F - 35.6 °F 42% 30.03 in 10.0 mi Calm Calm - N/A   Clear
9:35 PM 57.7 °F - 36.1 °F 44% 30.02 in 10.0 mi East 3.5 mph - N/A   Scattered Clouds
9:55 PM 57.2 °F - 36.0 °F 45% 30.01 in 10.0 mi East 3.5 mph - N/A   Clear
10:15 PM 57.2 °F - 36.0 °F 45% 30.01 in 10.0 mi Calm Calm - N/A   Clear
10:35 PM 56.3 °F - 36.7 °F 48% 30.01 in 10.0 mi Calm Calm - N/A   Clear
10:55 PM 56.1 °F - 36.5 °F 48% 30.01 in 10.0 mi Calm Calm - N/A   Clear
11:15 PM 55.6 °F - 36.9 °F 49% 30.00 in 10.0 mi ESE 3.5 mph - N/A   Clear
11:35 PM 54.9 °F - 36.9 °F 51% 30.00 in 10.0 mi East 3.5 mph - N/A   Clear
11:55 PM 54.7 °F - 36.5 °F 50% 30.00 in 10.0 mi Calm Calm - N/A   Clear